Aérodrome :
LOGIN :

S'inscrire | Disclaimer

   EN    FR    IT 

 










Légende :    VFR   VFR Marginal   IFR   IFR Intensif   IFR Très Intensif
Visi : 
Plafond : 
>= 8 km
>= 3000ft
5 à 8 km
1000 à 3000 ft
1500m à 5 km
500 à 1000 ft
800 à 1500m
200 à 500 ft
< 800m
< 200 ft
Symboles :   Orages  Brouillard  Fortes neiges  Fortes précipitations  Vent > 20 kt
SIGMETs :   Divers  Orages  Givrage  Turbulence  Onde Orograph.  Cendres Volcan.







- Altitude de l'aérodrome : 1830 ft


EBLB - Butgenbach Elsenborn

DERNIER METAR :
  • 211255Z AUTO 31005KT 9999 BKN049/// BKN071/// 23/11 Q1013 BLU

METARs EXPIRÉS :
  • 211225Z AUTO 29004KT 9999 SCT050/// BKN069/// 24/11 Q1013 BLU
  • 211155Z AUTO VRB02KT 9999 BKN048/// 22/11 Q1013 BLU
  • 211125Z AUTO VRB02KT 9999 SCT042/// 23/13 Q1013 BLU
  • 211055Z AUTO VRB02KT 9999 SCT041/// BKN075/// 23/12 Q1013 BLU
  • 211025Z AUTO 32003KT 9999 FEW075/// BKN098/// 22/12 Q1013 BLU

Prévision TAF périmée.
Pas de NOTAMs connus pour ce terrain.



MET'MAP, la Météo Aéronautique d'un coup d'oeil ! - Copyright ORBIFLY Décembre 2007 - Disclaimer

ORBIFLY MET'MAP TEAM :

Programmation & Développement : Alexandra Zaïnal
Conception & Développement : Baudouin d'Aumeries
Co-Programmation & Développement : Marc-Olivier Méhu
Soutien technique & logistique : Manuel Goepfert

Contact : metmap@orbifly.com




SOURCES & CREDITS :

   NOAA